Weather History for CYIO - October, 2012

Change the Weather History Date:

Wednesday, October 31, 2012

  Actual Average Record
Temperature  
Mean Temperature 10 °F -  
Max Temperature 19 °F 9 °F 30 °F (1998)
Min Temperature 1 °F 0 °F -14 °F (2001)
Degree Days  
Heating Degree Days 55    
Moisture  
Dew Point 8 °F    
Average Humidity 80    
Maximum Humidity 93    
Minimum Humidity 53    
Precipitation  
Precipitation 0.00 in - - ()
Sea Level Pressure  
Sea Level Pressure 30.37 in    
Wind  
Wind Speed 8 mph ()    
Max Wind Speed 12 mph    
Max Gust Speed -    
Visibility 6.8 miles    
Events Snow    
Averages and records for this station are not official NWS values.
T = Trace of Precipitation, MM = Missing Value Source: Averaged Metar Reports

Daily Weather History Graph

Daily Weather History Graph

Search for Another Location

Airport or City:

Trip Planner

Search our weather history database for the weather conditions in past years. The results will help you decide how hot, cold, wet, or windy it might be!

Date:

Astronomy

Oct. 31, 2012 Rise Set
Actual Time 10:17 AM EDT 3:32 PM EDT
Civil Twilight 8:44 AM EDT 5:04 PM EDT
Nautical Twilight 7:17 AM EDT 6:31 PM EDT
Astronomical Twilight 5:56 AM EDT 7:51 PM EDT
Moon No Moon Rise No Moon Set
Length of Visible Light 8h 20m
Length of Day
5h 15m
Full, 97% of the Moon is Illuminated
Oct 31
Full
Nov 6
Last Quarter
Nov 13
New
Nov 20
First Quarter
Nov 28
Full

Hourly Weather History & Observations

Time (EDT) Temp. Windchill Dew Point Humidity Pressure Visibility Wind Dir Wind Speed Gust Speed Precip Events Conditions
12:00 AM 1.4 °F -14.5 °F -2.2 °F 85% 30.56 in 9.0 mi SSE 10.4 mph - N/A   Overcast
1:00 AM 5.0 °F -10.0 °F -0.4 °F 78% 30.55 in 9.0 mi SSE 10.4 mph - N/A   Overcast
2:00 AM 5 °F - 0 °F 72% 30.55 in 9 mi SSE 10.4 mph - -   Overcast
2:00 AM 5.0 °F -10.8 °F -0.4 °F 78% 30.55 in 9.0 mi SSE 11.5 mph - N/A   Overcast
3:00 AM 6.8 °F -6.9 °F 3.2 °F 85% 30.55 in 9.0 mi SSE 9.2 mph - N/A   Overcast
4:00 AM 8.6 °F -4.7 °F 5.0 °F 85% 30.55 in 9.0 mi South 9.2 mph - N/A   Overcast
5:00 AM 8 °F - 4 °F 78% 30.55 in 9 mi SSE 6.9 mph - -   Overcast
5:00 AM 8.6 °F -2.6 °F 5.0 °F 85% 30.55 in 9.0 mi SSE 6.9 mph - N/A   Overcast
6:00 AM 8.6 °F -1.3 °F 5.0 °F 85% 30.54 in 9.0 mi South 5.8 mph - N/A   Overcast
6:52 AM 8.6 °F -2.6 °F 5.0 °F 85% 30.51 in 9.0 mi SE 6.9 mph - N/A   Overcast
7:00 AM 8.6 °F -1.3 °F 5.0 °F 85% 30.53 in 9.0 mi SSE 5.8 mph - N/A   Overcast
8:00 AM 8 °F - 4 °F 75% 30.53 in 9 mi South 8.1 mph - -   Overcast
8:00 AM 8.6 °F -3.7 °F 3.2 °F 79% 30.53 in 9.0 mi South 8.1 mph - N/A   Overcast
9:00 AM 8.6 °F -3.7 °F 3.2 °F 79% 30.52 in 9.0 mi SSE 8.1 mph - N/A   Overcast
10:00 AM 6.8 °F -6.9 °F 3.2 °F 85% 30.52 in 9.0 mi South 9.2 mph - N/A   Overcast
11:00 AM 7 °F - 2 °F 73% 30.52 in 9 mi South 9.2 mph - -   Overcast
11:00 AM 6.8 °F -7.8 °F 3.2 °F 85% 30.52 in 9.0 mi South 10.4 mph - N/A   Overcast
11:41 AM 5.0 °F -9.1 °F -0.4 °F 78% 30.48 in 9.0 mi SSE 9.2 mph - N/A   Partly Cloudy
12:00 PM 5.0 °F -9.1 °F -0.4 °F 78% 30.50 in 9.0 mi SE 9.2 mph - N/A   Clear
1:00 PM 8.6 °F -2.6 °F 3.2 °F 79% 30.49 in 20.0 mi East 6.9 mph - N/A   Mostly Cloudy
2:00 PM 10 °F - 1 °F 53% 30.45 in 9 mi ENE 6.9 mph - -   Overcast
2:00 PM 10.4 °F -1.5 °F 1.4 °F 67% 30.45 in 20.0 mi ENE 8.1 mph - N/A   Mostly Cloudy
3:00 PM 10.4 °F -0.4 °F 5.0 °F 79% 30.43 in 20.0 mi ENE 6.9 mph - N/A   Overcast
4:00 PM 12.2 °F -0.2 °F 1.4 °F 62% 30.40 in 15.0 mi ENE 9.2 mph - N/A   Overcast
5:00 PM 14 °F - 6 °F 60% 30.38 in 9 mi ENE 9.2 mph - -   Overcast
5:00 PM 14.0 °F 2.0 °F 6.8 °F 73% 30.38 in 10.0 mi ENE 9.2 mph - N/A   Overcast
5:15 PM 14.0 °F 2.0 °F 6.8 °F 73% 30.34 in 9.0 mi ENE 9.2 mph - N/A   Overcast
5:45 PM 14.0 °F 2.9 °F 6.8 °F 73% 30.33 in 3.0 mi East 8.1 mph - N/A Snow Light Snow
5:50 PM 14.0 °F 2.9 °F 6.8 °F 73% 30.33 in 3.0 mi East 8.1 mph - N/A   Overcast
6:00 PM 15.8 °F 5.1 °F 8.6 °F 73% 30.35 in 3.0 mi East 8.1 mph - N/A   Overcast
6:07 PM 15.8 °F 5.1 °F 8.6 °F 73% 30.33 in 2.5 mi ENE 8.1 mph - N/A   Overcast
6:14 PM 14.0 °F 2.9 °F 8.6 °F 79% 30.32 in 2.0 mi ENE 8.1 mph - N/A Snow Light Snow
6:20 PM 14.0 °F 2.9 °F 8.6 °F 79% 30.32 in 1.4 mi ENE 8.1 mph - N/A Snow Light Snow
6:41 PM 14.0 °F 2.9 °F 10.4 °F 86% 30.29 in 2.0 mi East 8.1 mph - N/A Snow Light Snow
7:00 PM 15.8 °F 4.2 °F 10.4 °F 79% 30.32 in 1.5 mi East 9.2 mph - N/A Snow Light Snow
7:05 PM 15.8 °F 5.1 °F 10.4 °F 79% 30.29 in 1.4 mi ENE 8.1 mph - N/A Snow Light Snow
7:30 PM 15.8 °F 4.2 °F 12.2 °F 86% 30.28 in 1.0 mi East 9.2 mph - N/A Snow Light Snow
7:34 PM 15.8 °F 4.2 °F 12.2 °F 86% 30.28 in 1.0 mi ENE 9.2 mph - N/A Snow Light Snow
7:53 PM 15.8 °F 5.1 °F 12.2 °F 86% 30.27 in 1.1 mi ENE 8.1 mph - N/A Snow Light Snow
8:00 PM 16 °F - 13 °F 85% 30.29 in 1 mi ENE 8.1 mph - -  
8:00 PM 15.8 °F 4.2 °F 14.0 °F 93% 30.29 in 1.1 mi ENE 9.2 mph - N/A Snow Light Snow
8:12 PM 15.8 °F 3.4 °F 14.0 °F 93% 30.26 in 1.0 mi NE 10.4 mph - N/A Snow Light Snow
8:16 PM 17.6 °F 6.4 °F 14.0 °F 86% 30.26 in 1.0 mi ENE 9.2 mph - N/A Snow Light Snow
8:33 PM 17.6 °F 7.3 °F 14.0 °F 86% 30.26 in 1.5 mi ENE 8.1 mph - N/A Snow Light Snow
9:00 PM 17.6 °F 5.7 °F 14.0 °F 86% 30.26 in 1.8 mi ENE 10.4 mph - N/A Snow Light Snow
9:32 PM 17.6 °F 6.4 °F 14.0 °F 86% 30.22 in 4.0 mi ENE 9.2 mph - N/A Snow Light Snow
9:48 PM 17.6 °F 7.3 °F 14.0 °F 86% 30.21 in 9.0 mi ENE 8.1 mph - N/A   Mostly Cloudy
9:58 PM 17.6 °F 6.4 °F 14.0 °F 86% 30.21 in 9.0 mi ENE 9.2 mph - N/A   Overcast
10:00 PM 17.6 °F 7.3 °F 14.0 °F 86% 30.23 in 9.0 mi ENE 8.1 mph - N/A   Overcast
11:00 PM 19 °F - 13 °F 69% 30.20 in 9 mi ENE 10.4 mph - -   Overcast
11:00 PM 19.4 °F 8.6 °F 14.0 °F 80% 30.20 in 9.0 mi ENE 9.2 mph - N/A   Overcast
11:09 PM 19.4 °F 7.9 °F 14.0 °F 80% 30.17 in 9.0 mi ENE 10.4 mph - N/A   Overcast
11:33 PM 19.4 °F 10.4 °F 14.0 °F 80% 30.16 in 3.5 mi East 6.9 mph - N/A Snow Light Snow
11:40 PM 19.4 °F 11.5 °F 14.0 °F 80% 30.16 in 2.4 mi East 5.8 mph - N/A Snow Light Snow
11:41 PM 19.4 °F 10.4 °F 14.0 °F 80% 30.16 in 2.2 mi East 6.9 mph - N/A Snow Light Snow
11:49 PM 19.4 °F 8.6 °F 14.0 °F 80% 30.16 in 1.4 mi ENE 9.2 mph - N/A Snow Light Snow